Location: Seven Kings
(51.5667°N, 0.1000°E)
Time: 12:15:52
(UTC+00:00)

USA 307 - Pass Details

Date: 29 October 2020
Orbit: 569 x 579 km, 54.0° (Epoch: 23 November)

Event Time Altitude Azimuth Distance (km) Brightness Sun altitude
Rises 18:38:10 0° 292° (WNW) 2,790 7.7 -19.3°
Reaches altitude 10° 18:40:32 10° 284° (WNW) 1,887 6.7 -19.6°
Maximum altitude 18:44:31 39° 216° (SW) 871 4.0 -20.2°
Enters shadow 18:46:30 24° 164° (SSE) 1,200 4.3 -20.6°
